Regional Weather Roundup
Issued by NWS Charleston, SC

Current Version | Previous Version | Text Only | Print | Product List | Glossary Off
Versions: 1 2 3 4 5 6 7 8 9 10 11 12 13 14 15 16 17 18 19 20 21 22 23 24 25 26 27 28 29 30 31 32 33 34 35 36 37 38 39 40 41 42 43 44 45 46 47 48 49 50

000
ASUS42 KCHS 201725
RWRCHS

REGIONAL WEATHER ROUNDUP
NATIONAL WEATHER SERVICE CHARLESTON SC
100 PM EDT SAT SEP 20 2014

NOTE: "FAIR" INDICATES FEW OR NO CLOUDS BELOW 12,000 FEET WITH NO
SIGNIFICANT WEATHER AND/OR OBSTRUCTIONS TO VISIBILITY.

NOT ALL STATIONS ARE QUALITY CONTROLLED BY THE NATIONAL
WEATHER SERVICE. USE DATA WITH CAUTION...ESPECIALLY
DEWPOINT OBSERVATIONS.

SCZ027-030-031-034>040-042>050-201800-
...SOUTH CAROLINA...

CITY           SKY/WX    TMP DP  RH WIND       PRES   REMARKS
N CHARLESTON   CLOUDY    74  66  76 N13       30.04F
WATERFRONT PRK NOT AVBL
FORT JOHNSON   NOT AVBL
MOUNT PLEASANT FAIR      73  68  83 N7        30.03F
JOHNS ISLAND   MOSUNNY   72  72 100 N10       30.03F
PINOPOLIS        N/A     73  66  78 NE16      29.99F
MONCKS CORNER    N/A     73  68  83 N9        30.06F
SUMMERVILLE    FAIR      72  68  88 N9G16     30.07F
BEAUFORT MCAS  CLOUDY    72  66  81 W14G21    30.03F
BEAUFORT ARPT  FAIR      72  68  88 N17       30.02F
HILTON HEAD IS MOSUNNY   73  70  88 N10G16    30.04F
GEORGETOWN     NOT AVBL
WALTERBORO     CLOUDY    73  66  78 NE8G16    30.06F
ORANGEBURG     CLOUDY    74  61  63 NE10      30.10F
BARNWELL       FAIR      79  64  61 NE12G17   30.10F
AIKEN          FAIR      79  66  65 NE9       30.14F
MANNING        FAIR      77  68  73 NE12G17   30.08F
KINGSTREE      NOT AVBL
COLUMBIA       PTSUNNY   80  58  46 NE10      30.11F
SUMTER         CLOUDY    74  59  59 NE18G25   30.10F
FLORENCE       CLOUDY    76  63  64 NE16G24   30.11F
MYRTLE BEACH   PTSUNNY   75  64  69 NE17      30.07F
N MYRTLE BEACH CLOUDY    74  65  73 N13G23    30.06F

$$

GAZ063-065-086>088-099>101-113>116-118-119-134-136>141-150-201800-
...GEORGIA...

CITY           SKY/WX    TMP DP  RH WIND       PRES   REMARKS
SAVANNAH ARPT  CLOUDY    76  67  73 N13       30.03F
HUNTER AAF     CLOUDY    73  68  83 NE13G20   30.00F
FORT STEWART   CLOUDY    75  68  78 N12       30.02S
STATESBORO     NOT AVBL
SYLVANIA       PTSUNNY   82  72  71 NE10G18   30.07F
CLAXTON        FAIR      77  70  78 N10G18    30.05F
THOMSON        MOSUNNY   81  68  65 NE13G18   30.15F
AUGUSTA-BUSH   SUNNY     81  61  50 E12       30.09F
AUGUSTA-DANIEL SUNNY     82  60  47 NE15      30.11F
SWAINSBORO     FAIR      82  68  61 NE12G20   30.07F
VIDALIA        PTSUNNY   79  70  73 N12       30.05F
ALMA           PTSUNNY   82  68  62 N8        30.02F
WAYCROSS       PTSUNNY   83  73  71 E10       30.00F
JESUP          CLOUDY    81  72  74 NE7       30.02S
BRUNSWICK      CLOUDY    73  70  88 N10G16    30.00S
SAINT SIMONS   LGT RAIN  76  72  87 N15G22    29.98S

$$

SCZ027-028-034-036>038-045-046-048>050-GAZ119-141-201800-
...LAKE AND SUPPLEMENTAL COASTAL OBSERVATIONS...

STATION/POSITION TIME  TEMP    WIND        PRES    WAVE   SWELL
                       AIR SEA DIR/SP/G            HT/PER HT/PER/DIR
                 (UTC) (F)     (DEG/KT/KT) (MB)    (FT/S) (FT/S/D)
UPR LAKE MARION  NOT AVBL
WINYAH BAY       1700   73      20/  9     1018.0S
LAKE MURRAY      1600   76      30/  4/  9 1019.3F
ACE BASIN NERRS  1700   71      20/  4     1017.0S
FORT PULASKI     1700   72      10/ 11/ 16 1016.8F
SAPELO ISLAND    1700   72      20/ 12     1016.0S

$$

ANZ835-935-AMZ111-154-330-350-352-354-374-450-454-472-201800-
...C-MAN AND BUOY OBSERVATIONS...

STATION/POSITION TIME  TEMP    WIND        PRES    WAVE   SWELL
                       AIR SEA DIR/SP/G            HT/PER HT/PER/DIR
                 (UTC) (F)     (DEG/KT/KT) (MB)    (FT/S) (FT/S/D)
FOLLY BEACH CMAN 1700   73      10/ 17/ 20 1016.9F
BUOY 41004       1700   78 82   30/ 21/ 25 1014.3F   7/ 7   2/12
BUOY 41008       1700   79 83   50/ 19/ 25 1014.6F   6/ 7   2/ 80/10
5E ST. MARYS GA  1700      84                N/A     6/ 8
FRYING PAN BUOY  NOT AVBL
BUOY 41025       1700   80     110/ 12/ 16 1018.2F   8/ 8   7/ 70/ 8
CAPE LOOKOUT NC  1700   73      20/ 14/ 16 1017.7F
BUOY 41002       1603   77 82  100/ 21/ 27 1014.1F   8/ 7   2/ 80/11
BUOY 41010       1700   81 84  230/ 17/ 21 1012.1F   5/ 8   5/ 60/ 8
BUOY 41012       NOT AVBL
ST AUGUSTINE FL  1700   78      20/ 13/ 14 1013.8F
CAPERS NEARSHORE NOT AVBL
FRIPP NEARSHORE  NOT AVBL


$$


USA.gov is the U.S. government's official web portal to all federal, state and local government web resources and services.